GFSNE_sfc_30mbdewp_159.txt.gz
Dewpoint
56 59 58 59 59 59 59 57 54 50 51 52 52 59 60 60 60 59 58 57 55 55 55 56 57 58 58 57 57 57 57 56 56 56 55 54 54 55
56 58 58 58 58 59 58 57 55 51 48 52 54 57 59 60 60 60 60 58 55 54 54 54 55 57 57 57 56 56 56 56 56 56 55 55 54 54
55 57 57 57 57 57 57 56 55 54 51 52 54 57 58 59 59 60 60 59 58 53 53 53 53 54 56 56 56 55 55 56 56 55 55 55 55 55
48 55 55 56 56 56 56 56 55 55 54 52 53 53 56 58 58 59 59 60 59 54 52 52 52 52 53 55 54 54 54 55 55 55 55 54 54 54
43 45 49 55 55 55 55 55 56 56 56 54 53 53 54 55 56 57 58 58 59 58 53 51 51 50 51 52 53 53 53 53 54 54 53 53 53 54
37 38 38 38 39 44 46 48 50 55 56 55 54 52 53 54 56 55 54 56 56 55 53 51 50 49 50 50 51 51 52 52 52 53 52 52 52 52
33 35 36 36 34 34 37 38 42 46 50 53 53 51 50 50 52 54 55 54 53 52 53 50 50 49 49 48 50 49 50 51 51 51 51 51 51 51
31 32 34 31 31 31 32 33 34 38 42 45 49 49 50 51 51 53 53 51 51 49 52 52 50 50 51 50 49 50 48 48 49 50 50 50 50 50
27 28 31 29 28 28 30 31 32 34 35 36 39 42 45 46 48 49 50 50 51 48 50 51 44 49 49 49 49 49 49 48 48 48 48 49 49 49
26 26 26 27 27 28 28 29 30 32 34 34 35 36 37 38 38 41 43 48 45 43 45 49 39 45 40 40 43 47 47 47 46 46 46 47 47 47
24 26 27 26 28 29 28 28 29 30 32 33 33 34 35 36 37 37 41 45 46 45 40 47 39 40 37 38 37 39 41 42 44 44 45 45 45 45
24 25 26 27 29 30 29 29 28 29 30 30 31 33 34 36 38 38 40 42 44 43 41 45 39 40 45 34 34 36 38 40 41 42 42 43 43 43
22 24 26 27 26 28 29 27 27 28 29 30 30 31 33 34 36 38 39 40 41 43 43 43 37 37 41 39 31 31 33 35 37 39 40 41 42 42
21 24 25 22 22 24 24 23 24 24 24 25 26 27 29 30 31 32 34 36 39 41 42 41 41 40 40 37 40 30 30 32 34 36 38 40 40 40
19 20 21 21 21 21 21 21 23 22 21 22 22 23 25 27 30 31 34 35 36 36 37 39 40 39 39 40 39 31 30 30 32 34 35 37 35 35
17 17 17 18 19 19 20 20 21 20 20 20 21 22 24 25 26 29 31 33 34 36 33 35 36 37 37 36 35 32 30 33 31 32 32 32 33 34
14 14 13 13 14 15 16 17 18 19 19 19 20 19 20 22 23 26 28 31 31 33 34 32 33 34 34 34 33 32 30 30 30 31 31 30 31 32
11 10 10 10 11 12 13 14 15 17 18 19 18 19 19 20 21 23 26 29 29 31 32 30 30 31 31 31 31 31 30 29 30 30 30 28 27 30
9 9 9 9 9 10 11 12 13 15 17 17 17 17 18 19 19 21 23 26 28 30 31 30 30 31 29 30 27 31 29 28 28 28 29 28 26 27
8 8 7 8 8 9 9 10 11 13 14 15 15 17 18 18 18 19 21 24 25 28 29 30 30 31 31 31 27 26 30 28 28 27 26 27 28 29
6 6 7 7 7 8 9 9 10 11 12 13 15 15 17 18 18 19 20 22 24 25 26 28 30 31 29 27 25 24 27 31 30 27 26 25 24 25
6 5 6 6 7 7 8 8 9 10 11 12 13 14 16 18 18 19 20 21 22 24 26 28 28 29 28 27 24 23 25 27 30 30 29 27 24 22
5 5 5 5 6 7 7 8 8 9 10 11 13 14 15 16 18 19 20 22 23 24 25 24 26 27 25 25 24 23 23 24 25 24 26 29 29 29

GFSNE_sfc_30mbdewp_162.txt.gz
Dewpoint
40 42 45 50 53 56 57 55 52 51 52 55 55 59 60 60 60 59 59 58 55 55 55 57 58 59 58 57 57 56 56 56 56 56 55 55 55 55
39 40 43 50 53 55 57 56 56 53 51 54 56 56 59 59 60 60 60 58 56 54 53 54 56 57 57 57 56 56 56 56 56 56 56 55 55 55
37 38 41 48 52 55 58 58 57 56 54 53 54 55 57 58 59 59 59 59 58 53 52 52 53 55 56 56 55 55 55 55 56 56 56 56 55 55
34 35 38 40 53 55 57 57 57 57 55 52 52 54 55 58 58 58 59 59 59 55 52 51 51 52 54 54 54 54 54 54 55 55 55 55 55 55
31 33 34 34 43 53 55 55 56 55 55 53 52 53 54 55 56 57 57 57 58 58 52 51 50 51 51 52 53 53 53 53 54 54 54 54 54 54
29 32 32 32 31 33 44 50 55 55 55 54 53 52 52 53 55 54 53 56 56 56 53 51 50 49 50 50 51 52 52 52 52 53 52 52 53 53
27 29 32 31 31 31 32 34 39 51 54 54 53 50 51 50 52 54 53 53 54 53 54 51 51 50 49 48 50 50 50 51 51 51 51 51 51 51
25 26 28 29 29 30 31 32 33 35 44 50 50 50 50 51 51 52 53 51 50 50 53 52 51 50 51 49 49 49 48 49 49 50 50 50 50 50
25 25 26 27 28 30 30 31 32 33 33 36 41 41 42 39 42 47 49 50 51 49 50 51 47 51 50 50 50 48 48 47 48 48 48 49 48 49
26 26 26 26 28 30 30 29 30 31 32 33 34 34 35 36 36 38 39 40 43 45 46 50 41 48 44 45 47 48 48 47 46 47 47 47 47 47
23 26 27 27 28 30 29 28 29 29 31 31 32 33 34 35 36 35 37 40 43 45 42 47 41 44 41 43 41 43 45 45 45 45 45 45 46 46
21 22 25 25 26 27 26 25 24 25 27 29 29 31 33 35 36 37 37 37 41 44 43 45 41 43 47 37 37 37 39 41 42 43 43 44 44 45
19 20 22 24 24 24 24 24 24 24 24 26 27 28 29 31 31 32 34 34 36 39 41 43 39 38 41 42 36 34 35 36 38 39 40 41 42 43
17 19 19 19 20 21 23 23 23 23 22 22 22 23 24 25 26 28 31 33 35 36 38 40 42 41 41 40 44 33 32 33 35 36 38 39 40 41
15 15 15 16 16 18 18 20 22 20 20 19 19 20 22 24 25 27 30 32 34 35 35 37 39 40 40 42 42 38 37 33 32 33 35 37 38 37
13 13 12 13 13 14 15 16 18 19 19 18 19 20 21 21 22 24 26 29 31 34 33 34 36 37 37 38 38 38 33 37 31 32 33 34 34 36
11 11 10 9 10 11 11 12 14 15 16 18 17 18 18 19 20 21 23 25 28 30 32 33 33 34 35 36 35 35 33 32 32 31 32 31 31 33
8 8 7 7 8 9 9 10 11 12 14 15 15 16 17 18 18 19 21 22 24 27 30 31 31 31 31 32 33 33 32 31 31 31 31 30 29 30
7 6 6 6 7 7 8 9 9 11 13 13 14 16 17 17 17 18 19 20 22 24 27 31 30 30 30 30 29 31 31 29 29 29 30 29 28 28
5 5 4 5 6 6 7 7 8 9 10 11 12 14 15 15 17 17 18 18 19 21 23 27 29 30 30 31 31 28 30 30 29 28 27 27 28 30
4 4 4 4 5 5 6 6 7 8 9 10 11 12 13 14 15 17 18 18 19 20 21 24 28 31 31 28 27 26 28 31 30 28 26 25 24 25
3 3 4 4 4 5 5 6 6 7 8 9 10 11 12 13 14 15 16 17 18 20 21 24 27 29 28 28 27 25 25 28 30 29 29 27 25 22
3 3 3 3 4 4 5 5 5 6 8 9 9 10 12 12 14 16 17 18 19 20 21 23 25 27 27 27 26 24 24 24 25 25 27 29 28 27

GFSNE_sfc_30mbdewp_165.txt.gz
Dewpoint
32 34 36 39 40 41 44 47 47 47 50 54 53 58 59 60 60 60 59 58 55 55 56 57 58 59 58 58 57 57 56 56 56 56 56 55 54 55
30 32 34 37 37 40 43 46 49 50 49 52 54 55 59 60 60 60 60 59 55 54 54 54 56 58 58 57 57 56 56 56 56 56 56 56 55 54
28 30 32 34 35 35 38 45 50 50 50 51 55 57 59 58 59 60 60 59 58 54 53 53 53 55 56 56 56 56 56 55 55 56 56 56 55 55
26 28 29 32 32 32 32 35 50 51 52 52 56 56 57 57 57 58 59 59 59 55 52 52 52 52 53 54 54 54 54 54 54 55 55 55 55 55
26 27 28 29 30 29 30 32 37 50 53 53 54 56 56 57 57 58 58 58 59 58 53 52 52 51 51 52 53 53 53 53 53 53 54 54 55 55
28 28 28 28 29 29 29 30 32 36 53 55 54 54 55 55 56 55 55 57 57 58 53 51 50 49 49 50 51 52 52 52 52 52 52 53 53 53
26 27 28 29 30 30 29 30 31 32 52 53 53 52 52 51 53 54 54 55 56 56 54 51 51 50 48 48 50 50 50 51 51 51 51 51 52 53
24 26 28 29 28 29 31 31 31 30 37 51 52 51 51 53 53 53 53 50 49 52 55 53 52 51 52 50 49 50 48 49 50 50 50 49 49 51
23 25 26 27 27 28 29 30 32 31 31 33 35 33 39 40 46 49 51 52 52 51 53 51 49 52 52 52 51 48 48 47 48 48 48 48 48 49
21 23 25 26 26 27 26 26 28 28 30 31 32 31 32 35 37 40 41 42 43 44 48 50 44 49 47 49 49 48 47 47 47 47 47 47 47 47
18 21 22 23 25 26 24 24 24 25 27 31 32 33 32 34 36 36 38 42 43 45 43 49 43 46 43 46 45 46 47 46 45 45 45 46 46 46
16 17 18 19 21 24 23 23 22 23 24 26 28 30 31 31 31 32 36 39 40 44 42 47 43 45 47 42 43 42 42 42 43 44 44 44 44 44
15 16 17 17 18 20 22 22 21 23 24 24 25 26 28 27 29 30 32 32 35 38 38 42 40 40 43 44 40 40 39 39 40 40 41 42 42 43
14 15 15 15 16 16 18 20 20 21 21 22 22 22 23 24 26 28 30 32 33 33 35 36 39 40 42 42 45 38 38 36 37 37 38 39 40 41
14 14 13 13 13 14 15 15 17 18 18 18 19 20 22 23 25 26 28 31 34 35 34 35 36 38 40 41 43 40 40 37 35 36 37 37 38 39
12 12 11 11 11 12 13 13 14 15 16 17 18 19 20 22 22 23 25 27 30 34 34 34 34 35 36 38 39 40 37 41 34 34 34 34 35 37
11 11 10 10 10 10 11 11 12 13 14 15 16 17 17 19 20 21 23 24 26 28 31 34 33 33 34 36 36 37 37 35 34 33 33 33 33 34
9 9 9 9 9 9 10 10 11 11 12 13 14 16 16 17 18 20 21 22 23 25 27 30 32 32 32 33 34 35 34 34 33 32 33 33 31 31
8 8 7 8 8 8 8 9 9 10 12 12 13 14 15 15 17 18 19 20 20 22 24 26 30 30 30 31 32 31 34 32 31 31 31 31 31 30
7 6 6 6 7 7 8 8 9 10 11 11 12 13 14 15 15 16 17 19 19 20 21 24 26 30 29 30 32 31 30 32 31 30 28 28 29 30
5 6 6 6 6 7 7 8 8 9 10 11 12 13 14 14 14 16 17 18 19 20 20 22 24 27 30 30 29 29 30 31 32 30 28 27 26 26
5 5 6 6 7 7 7 8 8 9 10 10 11 12 13 14 14 15 17 17 18 20 20 22 24 25 27 28 28 29 27 29 30 29 28 28 26 25
5 5 5 6 6 7 7 7 8 8 9 10 10 12 13 13 15 16 17 18 19 19 21 22 23 24 26 28 29 27 26 26 27 27 28 30 28 27

GFSNE_sfc_30mbdewp_168.txt.gz
Dewpoint
29 29 30 33 34 35 38 37 38 35 37 41 46 51 59 61 60 60 60 58 57 57 58 58 58 59 59 58 58 57 57 56 56 55 55 55 55 55
27 28 29 31 32 34 36 36 36 35 34 41 44 49 56 59 60 60 60 59 55 55 55 55 56 58 58 58 57 57 57 56 55 55 55 55 55 56
26 26 27 29 31 32 34 33 33 34 32 36 44 48 51 58 58 60 60 60 58 53 53 53 54 55 56 56 56 56 56 56 55 55 55 55 55 56
25 25 26 27 28 29 31 31 31 32 32 32 38 47 50 55 57 58 58 59 59 55 52 52 52 53 54 55 55 55 55 55 54 54 54 55 55 56
24 24 25 27 27 28 29 29 30 30 32 32 34 43 50 52 56 58 58 58 59 58 51 50 51 51 51 52 52 53 53 53 53 53 53 54 54 55
24 25 25 27 28 29 28 28 29 30 30 32 34 40 49 52 56 56 57 58 57 58 54 52 50 50 50 51 51 52 52 52 52 52 52 52 52 53
24 25 26 27 29 29 28 28 28 28 30 29 32 42 47 50 53 56 55 56 57 58 55 53 52 50 49 48 51 50 50 51 51 51 51 51 51 52
23 24 25 26 26 26 27 27 29 27 28 26 28 32 44 49 55 55 54 52 51 56 55 52 53 51 52 50 49 49 48 49 50 50 50 50 50 50
23 22 23 25 23 25 25 25 28 28 28 26 27 29 31 37 49 54 54 53 53 54 55 52 51 52 53 52 50 48 48 48 48 48 49 48 48 48
22 22 21 21 21 21 24 24 26 27 27 28 29 30 31 34 38 39 42 49 47 48 53 50 46 51 51 53 50 48 47 47 47 47 47 47 47 46
16 19 20 18 18 19 22 22 23 23 27 28 29 31 32 32 35 39 38 43 43 45 44 49 43 47 46 48 48 48 47 46 46 46 46 46 46 45
16 16 16 17 17 18 20 20 20 20 25 26 27 27 29 30 31 33 32 35 37 43 40 45 43 46 48 42 43 43 44 43 44 44 44 44 44 44
15 15 16 16 16 16 17 18 20 22 24 25 26 27 27 26 29 29 31 32 32 36 34 38 41 42 46 45 42 42 41 39 41 41 42 42 43 44
15 15 16 15 15 15 16 16 17 20 22 23 24 24 24 24 27 28 30 31 32 32 34 34 37 40 43 43 45 40 38 38 40 40 40 40 41 41
14 15 14 14 14 15 15 15 16 18 19 19 19 21 23 27 26 26 29 31 34 34 34 34 34 36 39 41 42 41 41 37 37 39 39 38 39 39
13 14 14 14 13 13 14 14 14 15 16 17 19 21 21 23 22 25 26 28 31 32 35 34 34 35 36 37 40 40 41 42 36 37 37 38 38 39
13 13 13 12 11 11 12 12 13 13 14 16 16 17 18 19 20 23 25 26 27 28 30 33 35 34 34 35 36 38 38 38 37 35 36 36 35 35
11 11 11 11 11 10 11 11 12 13 14 14 16 16 16 17 19 20 22 23 24 25 27 29 31 33 34 34 35 36 36 37 35 34 35 35 34 34
10 9 10 10 10 10 10 10 11 13 14 14 15 15 16 17 18 18 19 20 21 22 24 26 29 31 30 32 35 32 35 35 33 32 33 33 33 32
9 9 9 9 9 9 10 10 11 12 13 14 15 15 16 16 17 17 18 19 20 20 22 24 27 29 29 29 29 32 31 33 33 32 30 29 29 30
8 8 9 9 9 9 10 11 12 13 14 14 14 15 16 16 16 17 18 19 19 20 21 23 25 26 26 30 29 31 31 31 33 32 30 29 28 29
8 8 8 9 9 9 10 11 10 11 12 13 14 15 15 16 16 17 17 18 19 20 21 23 25 26 26 27 28 31 30 30 31 30 29 30 29 28
8 8 8 9 9 8 9 9 10 10 11 11 12 12 14 14 16 17 17 18 19 20 21 22 24 26 26 27 29 31 29 28 28 28 29 30 30 27

GFSNE_sfc_30mbdewp_171.txt.gz
Dewpoint
28 28 28 29 31 32 33 34 32 28 31 34 35 37 39 42 44 50 56 58 56 56 57 58 59 60 59 59 59 58 57 56 56 55 55 55 55 54
26 27 28 28 29 31 32 33 33 33 29 32 32 34 36 37 41 45 48 57 56 55 54 56 57 58 59 58 58 58 57 56 56 56 55 55 54 54
25 26 27 27 28 30 30 31 32 33 31 31 32 32 34 35 39 44 48 51 58 54 53 53 54 56 57 57 57 57 57 56 56 55 55 55 55 54
26 26 25 25 27 28 29 29 29 29 29 29 30 30 31 34 36 41 45 51 58 57 53 53 53 54 55 55 55 55 55 55 55 55 55 55 55 55
25 25 26 25 26 28 28 28 27 27 29 29 28 30 30 33 36 41 45 50 57 59 53 51 52 52 52 53 53 54 54 53 53 53 53 53 54 54
26 25 25 26 25 28 27 26 26 26 26 26 27 28 30 31 34 40 44 49 52 57 54 53 51 51 51 51 51 52 53 53 52 52 52 52 52 52
26 23 25 24 24 27 25 25 24 24 24 24 25 27 28 28 30 37 45 45 51 57 54 52 51 51 50 50 52 51 51 51 51 51 51 51 51 51
25 24 23 24 24 22 21 20 22 24 24 25 24 24 25 27 30 33 35 46 47 57 56 54 54 51 52 51 50 51 50 50 50 51 51 51 50 50
23 23 23 23 23 22 20 20 21 22 26 26 24 24 25 27 30 29 32 41 48 54 56 53 52 53 53 51 49 48 48 48 49 49 49 49 49 49
21 22 23 22 21 18 21 20 21 21 25 25 25 27 28 29 30 30 30 36 44 52 56 50 48 52 51 52 49 48 48 47 48 47 48 47 47 47
17 19 21 21 18 17 20 19 19 19 22 24 27 29 30 30 30 29 30 32 42 44 39 48 45 47 48 49 49 48 47 47 46 46 46 46 46 46
16 17 17 18 17 18 19 20 19 19 20 22 24 28 29 29 29 29 28 29 33 41 34 43 44 46 47 41 45 45 45 44 45 45 45 45 45 46
16 18 17 16 18 17 18 19 19 19 20 21 23 25 26 27 27 28 29 29 30 33 33 37 39 41 46 41 41 41 43 41 42 42 43 43 43 45
15 18 16 19 16 17 18 16 16 19 18 19 21 21 22 23 26 27 29 31 32 31 33 35 36 37 40 43 41 38 38 40 41 41 40 41 42 43
15 14 16 18 15 17 16 15 16 18 17 16 17 19 22 25 27 27 29 31 32 32 33 33 35 36 37 39 40 39 38 36 38 39 39 39 39 39
13 15 18 16 15 15 15 15 15 16 16 16 17 20 22 22 23 26 26 28 30 30 34 34 34 34 35 36 39 39 39 38 36 37 38 38 39 40
13 16 14 14 13 13 13 13 14 14 15 16 16 17 19 20 21 24 25 26 27 27 29 31 34 35 34 35 36 38 38 37 36 35 37 35 36 37
13 12 13 13 12 12 13 13 13 13 14 15 16 17 17 18 19 22 23 23 23 24 26 29 31 33 35 34 34 36 36 36 35 35 36 36 35 35
11 12 11 12 12 12 12 11 12 13 14 15 16 16 17 17 18 19 20 21 21 23 26 31 31 30 31 32 33 32 35 35 34 33 34 34 34 33
10 11 11 11 11 11 11 11 12 13 13 14 15 15 16 16 17 18 19 20 22 22 22 26 27 26 26 25 27 32 31 33 33 32 31 29 30 31
10 10 11 12 12 11 11 12 12 12 13 13 13 14 15 15 16 17 19 19 21 20 20 22 25 27 29 31 29 31 31 32 32 33 31 30 29 29
10 10 10 11 11 11 11 11 11 11 12 12 12 13 13 15 16 17 18 20 21 22 22 25 26 26 27 27 28 30 30 30 31 31 30 30 30 29
10 10 10 10 11 11 10 10 10 10 11 10 11 11 12 13 15 17 17 19 20 21 22 22 24 27 27 26 27 29 29 29 29 29 29 30 30 28